This demonstration page uses our WeatherBlox Daily Observations layout. Learn more.

38.89511, -77.03637

Hourly Observations for July 5, 2020

Temp ( °F °C ) Dew Point ( °F °C ) Humidity (%) Winds ( mph kmh ) Pressure ( in mb ) Visibility ( mi km ) Precip ( " mm )
12:52 am 00:52 Hazy 80 26.7 72 22.2 76 76 S 9 15 29.95 1014 5 8.0467 0 0
1:52 am 01:52 Hazy 79 26.1 73 22.8 82 82 S 12 19 29.95 1014 6 9.65604 0 0
2:52 am 02:52 Partly Cloudy 78 25.6 73 22.8 85 85 SSW 10 17 29.96 1015 7 11.26538 0 0
3:52 am 03:52 Partly Cloudy 77 25 73 22.8 88 88 S 10 17 29.95 1014 7 11.26538 0 0
4:14 am 04:14 Partly Cloudy 77 25 74 23.3 90 90 S 8 13 29.95 1014 7 11.26538 0 0
4:52 am 04:52 Mostly Cloudy 77 25 73 22.8 88 88 S 12 19 29.96 1015 7 11.26538 0 0
4:59 am 04:59 Mostly Cloudy 76 24.4 73 22.8 91 91 SSW 10 17 29.96 1014 7 11.26538 0 0
5:52 am 05:52 Cloudy with Mist and Fog 76 24.4 72 22.2 88 88 S 8 13 29.97 1015 6 9.65604 0 0
6:41 am 06:41 Cloudy with Mist and Fog 76 24.4 72 22.2 88 88 SSW 7 11 29.98 1015 6 9.65604 0 0
6:52 am 06:52 Cloudy with Mist and Fog 76 24.4 72 22.2 88 88 S 6 9 29.98 1015 6 9.65604 0 0
7:19 am 07:19 Mostly Cloudy with Mist and Fog 77 25 73 22.8 88 88 S 6 9 29.98 1015 6 9.65604 0 0
7:52 am 07:52 Mostly Cloudy with Haze 78 25.6 73 22.8 85 85 S 7 11 29.99 1016 6 9.65604 0 0
8:26 am 08:26 Partly Cloudy 81 27.2 71 21.7 72 72 SSW 7 11 30 1016 7 11.26538 0 0
8:52 am 08:52 Partly Cloudy 81 27.2 71 21.7 72 72 SSW 9 15 30 1016 7 11.26538 0 0
9:52 am 09:52 Mostly Sunny 84 28.9 71 21.7 65 65 S 10 17 29.99 1016 8 12.87472 0 0
10:52 am 10:52 Mostly Sunny 86 30 72 22.2 63 63 SSE 10 17 30 1016 9 14.48406 0 0
11:52 am 11:52 Mostly Cloudy 88 31.1 72 22.2 59 59 S 12 19 29.99 1016 10 16.0934 0 0
12:52 pm 12:52 Sunny 90 32.2 72 22.2 56 56 SSE 10 17 29.99 1016 10 16.0934 0 0
1:52 pm 13:52 Partly Cloudy 91 32.8 73 22.8 56 56 S 12 19 29.98 1015 10 16.0934 0 0
2:52 pm 14:52 Mostly Cloudy 92 33.3 72 22.2 52 52 S 13 20 29.95 1014 10 16.0934 0 0
3:52 pm 15:52 Partly Cloudy 93 33.9 73 22.8 52 52 S 12 19 29.93 1014 10 16.0934 0 0
4:52 pm 16:52 Mostly Cloudy 90 32.2 74 23.3 59 59 S 16 26 29.93 1014 10 16.0934 0 0
5:06 pm 17:06 Mostly Cloudy with Thunderstorms 90 32.2 74 23.3 59 59 S 14 22 29.92 1013 10 16.0934 0 0
5:32 pm 17:32 Mostly Cloudy with Light Rain 87 30.6 73 22.8 63 63 SSW 12 19 29.93 1013 8 12.87472 0.001 0.001
5:52 pm 17:52 Mostly Cloudy with Light Rain 85 29.4 73 22.8 68 68 S 9 15 29.93 1014 10 16.0934 0.001 0.001
6:52 pm 18:52 Mostly Cloudy 85 29.4 71 21.7 63 63 SW 8 13 29.95 1014 10 16.0934 0.001 0.001
7:52 pm 19:52 Mostly Cloudy 85 29.4 72 22.2 65 65 S 7 11 29.96 1015 10 16.0934 0 0
8:52 pm 20:52 Mostly Cloudy 84 28.9 72 22.2 67 67 S 8 13 29.96 1015 10 16.0934 0 0
9:52 pm 21:52 Mostly Cloudy 83 28.3 74 23.3 74 74 SSW 8 13 29.98 1015 10 16.0934 0 0
10:52 pm 22:52 Mostly Clear 82 27.8 73 22.8 74 74 S 8 13 29.99 1016 10 16.0934 0 0
11:52 pm 23:52 Mostly Clear 81 27.2 72 22.2 74 74 S 7 11 30 1016 10 16.0934 0 0

Powered by AerisWeather